EWG5HF LGKO-EDDL

Flight info

Callsign EWG5HF
Flight time N/A
Altitude 34000
Route LARKI UL609 MES DCT EVIVI DCT OKANA DCT BGD DCT NIVIS DCT BABIT DCT SOGMO DCT SASAL DCT DEXIT DCT TESDU DCT AMETU T852 TINSA T854 DOMUX DOMUX1A
Aircraft A320/M-SDE3FGHIRWY/LB1

Departure

Time 2026-05-08 07:28
Airport Kos International Airport "Ippokratis" (LGKO)

Arrival

Time N/A
Airport Düsseldorf Airport (EDDL)
Time Latitude Longitude Altitude Speed Heading
2026-05-08 06:54 36.80012 27.09040 419 ft 0 kts 58°
2026-05-08 07:19 36.80001 27.09017 411 ft 4 kts 58°
2026-05-08 07:19 36.79989 27.08994 409 ft 4 kts 60°
2026-05-08 07:19 36.79981 27.08964 408 ft 4 kts 97°
2026-05-08 07:20 36.79991 27.08939 409 ft 3 kts 148°
2026-05-08 07:20 36.80007 27.08927 408 ft 0 kts 148°
2026-05-08 07:23 36.80001 27.08932 411 ft 3 kts 148°
2026-05-08 07:24 36.79967 27.08958 415 ft 9 kts 148°
2026-05-08 07:24 36.79918 27.08980 410 ft 7 kts 174°
2026-05-08 07:24 36.79845 27.08984 416 ft 13 kts 178°
2026-05-08 07:24 36.79757 27.08987 415 ft 12 kts 178°
2026-05-08 07:25 36.79684 27.08990 410 ft 8 kts 178°
2026-05-08 07:25 36.79614 27.08998 412 ft 12 kts 163°
2026-05-08 07:25 36.79390 27.09167 412 ft 25 kts 148°
2026-05-08 07:26 36.79227 27.09294 407 ft 30 kts 148°
2026-05-08 07:26 36.79056 27.09427 399 ft 28 kts 148°
2026-05-08 07:26 36.78893 27.09554 397 ft 28 kts 148°
2026-05-08 07:26 36.78728 27.09683 393 ft 26 kts 148°
2026-05-08 07:27 36.78605 27.09766 391 ft 11 kts 173°
2026-05-08 07:27 36.78547 27.09793 388 ft 7 kts 108°
2026-05-08 07:27 36.78565 27.09809 388 ft 2 kts 348°
2026-05-08 07:27 36.78594 27.09786 390 ft 14 kts 328°
2026-05-08 07:28 36.78869 27.09572 396 ft 83 kts 328°
2026-05-08 07:28 36.79544 27.09046 413 ft 143 kts 328°
2026-05-08 07:28 36.80471 27.08321 768 ft 160 kts 328°
2026-05-08 07:28 36.81377 27.07528 1428 ft 160 kts 308°
2026-05-08 07:29 36.81723 27.06215 1824 ft 171 kts 263°
2026-05-08 07:29 36.81403 27.04695 2040 ft 193 kts 257°
2026-05-08 07:29 36.81537 27.02961 2325 ft 216 kts 294°
2026-05-08 07:29 36.82361 27.01296 2628 ft 238 kts 306°
2026-05-08 07:30 36.83432 26.99593 2986 ft 259 kts 308°
2026-05-08 07:30 36.84570 26.97796 3681 ft 267 kts 307°
2026-05-08 07:30 36.85684 26.95923 4491 ft 270 kts 304°
2026-05-08 07:30 36.86764 26.93987 5289 ft 273 kts 303°
2026-05-08 07:31 36.87809 26.92029 6064 ft 276 kts 302°
2026-05-08 07:31 36.88861 26.90004 6837 ft 279 kts 302°
2026-05-08 07:31 36.89912 26.87950 7571 ft 282 kts 302°
2026-05-08 07:31 36.90969 26.85878 8335 ft 284 kts 301°
2026-05-08 07:32 36.92033 26.83787 9097 ft 286 kts 301°
2026-05-08 07:32 36.93105 26.81676 9846 ft 289 kts 301°
2026-05-08 07:32 36.94192 26.79537 10440 ft 298 kts 301°
2026-05-08 07:32 36.95270 26.77211 10597 ft 321 kts 297°
2026-05-08 07:33 36.96404 26.74708 10815 ft 340 kts 305°
2026-05-08 07:33 36.98117 26.72645 11359 ft 348 kts 327°
2026-05-08 07:33 37.00393 26.71592 11978 ft 354 kts 352°
2026-05-08 07:33 37.02853 26.71835 12610 ft 360 kts 17°
2026-05-08 07:34 37.05046 26.73350 13232 ft 366 kts 41°
2026-05-08 07:34 37.06806 26.75665 13864 ft 369 kts 45°
2026-05-08 07:34 37.08867 26.77571 14404 ft 371 kts 25°
2026-05-08 07:34 37.11312 26.78564 14951 ft 371 kts
2026-05-08 07:35 37.13876 26.78976 15512 ft 373 kts
2026-05-08 07:35 37.16457 26.79411 16066 ft 376 kts
2026-05-08 07:35 37.19058 26.79886 16621 ft 379 kts
2026-05-08 07:35 37.21676 26.80383 17181 ft 382 kts
2026-05-08 07:36 37.24314 26.80888 17727 ft 385 kts
2026-05-08 07:36 37.26972 26.81397 18268 ft 388 kts
2026-05-08 07:36 37.29653 26.81908 18771 ft 391 kts
2026-05-08 07:36 37.32343 26.82419 19273 ft 392 kts
2026-05-08 07:37 37.35053 26.82864 19778 ft 391 kts 359°
2026-05-08 07:37 37.37755 26.82727 20276 ft 387 kts 347°
2026-05-08 07:37 37.40314 26.81929 20780 ft 383 kts 336°
2026-05-08 07:37 37.42703 26.80503 21296 ft 379 kts 325°
2026-05-08 07:38 37.44807 26.78547 21812 ft 376 kts 316°
2026-05-08 07:38 37.46790 26.76398 22326 ft 376 kts 316°
2026-05-08 07:38 37.48775 26.74250 22833 ft 377 kts 316°
2026-05-08 07:38 37.50764 26.72099 23334 ft 377 kts 316°
2026-05-08 07:39 37.52754 26.69943 23807 ft 378 kts 316°
2026-05-08 07:39 37.54747 26.67784 24196 ft 378 kts 316°
2026-05-08 07:39 37.56746 26.65618 24562 ft 379 kts 316°
2026-05-08 07:39 37.58749 26.63448 24910 ft 381 kts 316°
2026-05-08 07:40 37.60760 26.61267 25247 ft 382 kts 316°
2026-05-08 07:40 37.62779 26.59079 25577 ft 383 kts 316°
2026-05-08 07:40 37.64804 26.56883 25902 ft 385 kts 316°
2026-05-08 07:40 37.66835 26.54678 26219 ft 386 kts 315°
2026-05-08 07:41 37.68872 26.52459 26520 ft 388 kts 315°
2026-05-08 07:41 37.70919 26.50231 26822 ft 389 kts 315°
2026-05-08 07:41 37.72976 26.47997 27123 ft 391 kts 315°
2026-05-08 07:41 37.75040 26.45757 27418 ft 392 kts 315°
2026-05-08 07:42 37.77113 26.43504 27707 ft 394 kts 315°
2026-05-08 07:42 37.79192 26.41240 27993 ft 395 kts 315°
2026-05-08 07:42 37.81276 26.38970 28276 ft 396 kts 315°
2026-05-08 07:42 37.83370 26.36689 28555 ft 398 kts 315°
2026-05-08 07:43 37.85472 26.34394 28800 ft 400 kts 315°
2026-05-08 07:43 37.87579 26.32089 29053 ft 401 kts 315°
2026-05-08 07:43 37.89694 26.29771 29302 ft 403 kts 315°
2026-05-08 07:43 37.91814 26.27446 29541 ft 404 kts 315°
2026-05-08 07:44 37.93913 26.25145 29780 ft 405 kts 314°
2026-05-08 07:44 37.96048 26.22803 29969 ft 407 kts 314°
2026-05-08 07:44 37.98189 26.20445 30175 ft 408 kts 314°
2026-05-08 07:44 38.00336 26.18077 30357 ft 410 kts 314°
2026-05-08 07:45 38.02485 26.15704 30581 ft 409 kts 314°
2026-05-08 07:45 38.04631 26.13337 30851 ft 408 kts 314°
2026-05-08 07:45 38.06770 26.10978 31126 ft 407 kts 314°
2026-05-08 07:45 38.08899 26.08629 31398 ft 405 kts 314°
2026-05-08 07:46 38.11021 26.06284 31678 ft 404 kts 314°
2026-05-08 07:46 38.13133 26.03949 31974 ft 402 kts 313°
2026-05-08 07:46 38.15239 26.01617 32257 ft 400 kts 313°
2026-05-08 07:46 38.17333 25.99297 32541 ft 399 kts 313°
2026-05-08 07:47 38.19421 25.96978 32819 ft 398 kts 313°
2026-05-08 07:47 38.21503 25.94665 33100 ft 397 kts 313°
2026-05-08 07:47 38.23578 25.92357 33343 ft 396 kts 313°
2026-05-08 07:47 38.25753 25.90182 33594 ft 402 kts 320°
2026-05-08 07:48 38.28168 25.88362 33875 ft 404 kts 322°
2026-05-08 07:48 38.30597 25.86579 34101 ft 403 kts 322°
2026-05-08 07:48 38.33021 25.84801 34160 ft 400 kts 322°
2026-05-08 07:49 38.37815 25.81263 34164 ft 397 kts 322°
2026-05-08 07:49 38.42588 25.77713 34162 ft 397 kts 322°
2026-05-08 07:50 38.47363 25.74165 34159 ft 397 kts 322°
2026-05-08 07:50 38.52141 25.70615 34158 ft 397 kts 322°
2026-05-08 07:51 38.56921 25.67062 34157 ft 397 kts 322°
2026-05-08 07:51 38.61699 25.63503 34152 ft 398 kts 322°
2026-05-08 07:52 38.66447 25.59949 34156 ft 399 kts 321°
2026-05-08 07:52 38.71243 25.56361 34138 ft 400 kts 321°
2026-05-08 07:53 38.76058 25.52762 34135 ft 401 kts 321°
2026-05-08 07:53 38.80877 25.49152 34133 ft 402 kts 321°
2026-05-08 07:54 38.85702 25.45533 34134 ft 402 kts 321°
2026-05-08 07:54 38.90525 25.41901 34140 ft 402 kts 321°
2026-05-08 07:55 38.95353 25.38256 34136 ft 403 kts 321°
2026-05-08 07:55 39.00186 25.34612 34134 ft 403 kts 321°
2026-05-08 07:56 39.05023 25.30959 34143 ft 403 kts 321°
2026-05-08 07:56 39.09867 25.27289 34136 ft 404 kts 321°
2026-05-08 07:57 39.14714 25.23614 34128 ft 405 kts 321°
2026-05-08 07:57 39.19566 25.19928 34146 ft 405 kts 321°
2026-05-08 07:58 39.24384 25.16255 34142 ft 405 kts 321°
2026-05-08 07:58 39.29235 25.12553 34137 ft 405 kts 321°
2026-05-08 07:59 39.34086 25.08848 34137 ft 405 kts 321°
2026-05-08 07:59 39.38154 25.05739 34137 ft 405 kts 321°
2026-05-08 08:00 39.43006 25.02021 34145 ft 405 kts 320°
2026-05-08 08:00 39.47827 24.98320 34139 ft 406 kts 320°
2026-05-08 08:01 39.52694 24.94590 34127 ft 407 kts 320°
2026-05-08 08:01 39.57569 24.90843 34122 ft 407 kts 320°
2026-05-08 08:02 39.62440 24.87081 34121 ft 408 kts 320°
2026-05-08 08:02 39.67316 24.83311 34130 ft 408 kts 320°
2026-05-08 08:03 39.72197 24.79543 34130 ft 408 kts 320°
2026-05-08 08:03 39.77082 24.75762 34128 ft 409 kts 320°
2026-05-08 08:04 39.81967 24.71976 34126 ft 409 kts 320°
2026-05-08 08:04 39.86850 24.68181 34126 ft 409 kts 320°
2026-05-08 08:05 39.91731 24.64380 34148 ft 409 kts 320°
2026-05-08 08:05 39.96617 24.60565 34142 ft 410 kts 320°
2026-05-08 08:06 40.01509 24.56741 34132 ft 410 kts 320°
2026-05-08 08:06 40.06412 24.52914 34125 ft 411 kts 320°
2026-05-08 08:07 40.11313 24.49073 34132 ft 411 kts 320°
2026-05-08 08:07 40.16212 24.45222 34124 ft 411 kts 320°
2026-05-08 08:08 40.21109 24.41361 34141 ft 411 kts 320°
2026-05-08 08:08 40.26009 24.37495 34140 ft 412 kts 320°
2026-05-08 08:09 40.30925 24.33623 34123 ft 413 kts 320°
2026-05-08 08:09 40.35859 24.29731 34119 ft 414 kts 320°
2026-05-08 08:10 40.40795 24.25816 34128 ft 415 kts 320°
2026-05-08 08:10 40.45713 24.21911 34120 ft 417 kts 320°
2026-05-08 08:11 40.50679 24.17971 34123 ft 417 kts 320°
2026-05-08 08:11 40.55655 24.14015 34124 ft 418 kts 320°
2026-05-08 08:12 40.60626 24.10044 34127 ft 418 kts 320°
2026-05-08 08:12 40.65603 24.06061 34150 ft 419 kts 321°
2026-05-08 08:13 40.70609 24.02053 34109 ft 423 kts 321°
2026-05-08 08:13 40.75649 23.98025 34106 ft 425 kts 321°
2026-05-08 08:14 40.80713 23.93965 34111 ft 426 kts 321°
2026-05-08 08:14 40.85781 23.89887 34116 ft 427 kts 321°
2026-05-08 08:15 40.90859 23.85787 34116 ft 429 kts 322°
2026-05-08 08:15 40.95930 23.81691 34104 ft 431 kts 322°
2026-05-08 08:16 41.01058 23.77547 34111 ft 433 kts 322°
2026-05-08 08:16 41.06202 23.73382 34119 ft 434 kts 322°
2026-05-08 08:17 41.11362 23.69188 34107 ft 436 kts 322°
2026-05-08 08:17 41.16542 23.64967 34113 ft 438 kts 323°
2026-05-08 08:18 41.21748 23.60726 34100 ft 440 kts 323°
2026-05-08 08:18 41.26968 23.56461 34107 ft 441 kts 323°
2026-05-08 08:19 41.32200 23.52185 34111 ft 442 kts 323°
2026-05-08 08:19 41.37433 23.47894 34128 ft 442 kts 323°
2026-05-08 08:20 41.42824 23.43894 34122 ft 446 kts 329°
2026-05-08 08:20 41.48415 23.40272 34125 ft 447 kts 329°
2026-05-08 08:21 41.54015 23.36617 34115 ft 449 kts 329°
2026-05-08 08:21 41.59624 23.32941 34120 ft 449 kts 329°
2026-05-08 08:22 41.65207 23.29288 34118 ft 450 kts 329°
2026-05-08 08:22 41.70834 23.25608 34119 ft 450 kts 329°
2026-05-08 08:23 41.76456 23.21909 34117 ft 450 kts 329°
2026-05-08 08:23 41.82081 23.18191 34130 ft 451 kts 329°
2026-05-08 08:24 41.87700 23.14480 34135 ft 450 kts 329°
2026-05-08 08:24 41.93311 23.10774 34135 ft 449 kts 328°
2026-05-08 08:25 41.98912 23.07062 34135 ft 449 kts 329°
2026-05-08 08:25 42.04516 23.03342 34122 ft 449 kts 329°
2026-05-08 08:26 42.10113 22.99616 34133 ft 448 kts 329°
2026-05-08 08:26 42.15688 22.95892 34130 ft 447 kts 329°
2026-05-08 08:27 42.21253 22.92172 34123 ft 446 kts 329°
2026-05-08 08:27 42.26811 22.88461 34120 ft 446 kts 329°
2026-05-08 08:28 42.32324 22.84774 34131 ft 445 kts 329°
2026-05-08 08:28 42.37857 22.81052 34124 ft 444 kts 329°
2026-05-08 08:29 42.43377 22.77330 34127 ft 443 kts 329°
2026-05-08 08:29 42.48892 22.73610 34118 ft 443 kts 329°
2026-05-08 08:30 42.54406 22.69883 34114 ft 443 kts 329°
2026-05-08 08:30 42.62667 22.64284 34110 ft 443 kts 329°
2026-05-08 08:31 42.68177 22.60540 34104 ft 443 kts 329°
2026-05-08 08:31 42.73687 22.56790 34114 ft 443 kts 329°
2026-05-08 08:32 42.79204 22.53033 34104 ft 444 kts 329°
2026-05-08 08:32 42.84663 22.49143 34099 ft 441 kts 322°
2026-05-08 08:33 42.89531 22.44135 34092 ft 438 kts 317°
2026-05-08 08:33 42.94338 22.39017 34082 ft 439 kts 317°
2026-05-08 08:34 42.99152 22.33892 34084 ft 439 kts 317°
2026-05-08 08:34 43.03973 22.28756 34088 ft 440 kts 317°
2026-05-08 08:35 43.08760 22.23639 34086 ft 439 kts 317°
2026-05-08 08:35 43.13577 22.18485 34092 ft 439 kts 317°
2026-05-08 08:36 43.18391 22.13322 34091 ft 439 kts 317°
2026-05-08 08:36 43.23193 22.08157 34112 ft 439 kts 317°
2026-05-08 08:37 43.27995 22.02978 34108 ft 439 kts 317°
2026-05-08 08:37 43.32795 21.97791 34098 ft 439 kts 317°
2026-05-08 08:38 43.37600 21.92598 34104 ft 440 kts 317°
2026-05-08 08:38 43.42402 21.87391 34100 ft 439 kts 317°
2026-05-08 08:39 43.47199 21.82176 34097 ft 439 kts 316°
2026-05-08 08:39 43.51996 21.76953 34093 ft 439 kts 316°
2026-05-08 08:40 43.56789 21.71723 34100 ft 439 kts 316°
2026-05-08 08:40 43.61579 21.66484 34080 ft 439 kts 316°
2026-05-08 08:41 43.66363 21.61237 34092 ft 439 kts 316°
2026-05-08 08:41 43.71149 21.55979 34096 ft 439 kts 316°
2026-05-08 08:42 43.75922 21.50729 34099 ft 438 kts 316°
2026-05-08 08:42 43.80685 21.45482 34097 ft 437 kts 316°
2026-05-08 08:43 43.85438 21.40227 34107 ft 437 kts 316°
2026-05-08 08:43 43.90186 21.34965 34099 ft 437 kts 316°
2026-05-08 08:44 43.94933 21.29701 34106 ft 437 kts 316°
2026-05-08 08:44 43.99668 21.24433 34104 ft 436 kts 315°
2026-05-08 08:45 44.04397 21.19162 34101 ft 435 kts 316°
2026-05-08 08:45 44.09088 21.13935 34102 ft 435 kts 316°
2026-05-08 08:46 44.13809 21.08655 34093 ft 435 kts 316°
2026-05-08 08:46 44.18522 21.03367 34094 ft 435 kts 316°
2026-05-08 08:47 44.23235 20.98069 34095 ft 435 kts 316°
2026-05-08 08:47 44.27937 20.92762 34102 ft 435 kts 316°
2026-05-08 08:48 44.32636 20.87453 34097 ft 435 kts 316°
2026-05-08 08:48 44.37339 20.82143 34093 ft 435 kts 316°
2026-05-08 08:49 44.42041 20.76821 34091 ft 435 kts 316°
2026-05-08 08:49 44.46703 20.71526 34099 ft 435 kts 316°
2026-05-08 08:50 44.51391 20.66187 34106 ft 434 kts 316°
2026-05-08 08:50 44.56068 20.60846 34101 ft 433 kts 316°
2026-05-08 08:51 44.59981 20.56372 34102 ft 433 kts 316°
2026-05-08 08:51 44.64615 20.51067 34100 ft 433 kts 316°
2026-05-08 08:52 44.69279 20.45720 34108 ft 432 kts 316°
2026-05-08 08:52 44.73935 20.40373 34122 ft 432 kts 316°
2026-05-08 08:53 44.78580 20.35019 34110 ft 431 kts 316°
2026-05-08 08:53 44.83204 20.29649 34107 ft 430 kts 315°
2026-05-08 08:54 44.87769 20.24204 34104 ft 430 kts 315°
2026-05-08 08:54 44.92299 20.18711 34115 ft 429 kts 315°
2026-05-08 08:55 44.96819 20.13231 34113 ft 428 kts 315°
2026-05-08 08:55 45.01308 20.07823 34104 ft 427 kts 315°
2026-05-08 08:56 45.05823 20.02377 34102 ft 426 kts 315°
2026-05-08 08:56 45.10323 19.96926 34100 ft 426 kts 315°
2026-05-08 08:57 45.14809 19.91465 34111 ft 425 kts 315°
2026-05-08 08:57 45.19298 19.86003 34109 ft 425 kts 315°
2026-05-08 08:58 45.23782 19.80535 34108 ft 425 kts 315°
2026-05-08 08:58 45.28256 19.75039 34096 ft 426 kts 314°
2026-05-08 08:59 45.32701 19.69483 34099 ft 426 kts 314°
2026-05-08 08:59 45.37143 19.63913 34099 ft 426 kts 314°
2026-05-08 09:00 45.41589 19.58354 34109 ft 425 kts 314°
2026-05-08 09:00 45.45997 19.52829 34099 ft 425 kts 314°
2026-05-08 09:01 45.50428 19.47257 34122 ft 425 kts 314°
2026-05-08 09:01 45.54855 19.41680 34107 ft 425 kts 314°
2026-05-08 09:02 45.59280 19.36091 34107 ft 425 kts 314°
2026-05-08 09:02 45.63700 19.30490 34105 ft 425 kts 314°
2026-05-08 09:03 45.68119 19.24891 34103 ft 425 kts 314°
2026-05-08 09:03 45.72541 19.19288 34102 ft 425 kts 314°
2026-05-08 09:04 45.76953 19.13666 34129 ft 424 kts 313°
2026-05-08 09:04 45.81355 19.08048 34118 ft 423 kts 313°
2026-05-08 09:05 45.85718 19.02465 34108 ft 423 kts 313°
2026-05-08 09:05 45.90099 18.96841 34110 ft 422 kts 313°
2026-05-08 09:06 45.94266 18.90957 34105 ft 416 kts 304°
2026-05-08 09:06 45.97874 18.84458 34126 ft 415 kts 304°
2026-05-08 09:07 46.01474 18.77968 34120 ft 415 kts 304°
2026-05-08 09:07 46.05065 18.71485 34125 ft 414 kts 303°
2026-05-08 09:08 46.08640 18.65008 34126 ft 412 kts 303°
2026-05-08 09:08 46.12203 18.58549 34150 ft 411 kts 303°
2026-05-08 09:09 46.15752 18.52116 34140 ft 409 kts 303°
2026-05-08 09:09 46.19271 18.45693 34131 ft 407 kts 303°
2026-05-08 09:10 46.22779 18.39284 34117 ft 406 kts 303°
2026-05-08 09:10 46.26279 18.32884 34117 ft 406 kts 303°
2026-05-08 09:11 46.29777 18.26476 34121 ft 406 kts 303°
2026-05-08 09:11 46.33239 18.20106 34111 ft 405 kts 303°
2026-05-08 09:12 46.36715 18.13689 34129 ft 404 kts 302°
2026-05-08 09:12 46.40167 18.07297 34125 ft 402 kts 302°
2026-05-08 09:13 46.43604 18.00921 34122 ft 401 kts 302°
2026-05-08 09:13 46.47035 17.94557 34132 ft 400 kts 302°
2026-05-08 09:14 46.50453 17.88203 34124 ft 399 kts 302°
2026-05-08 09:14 46.53856 17.81856 34120 ft 398 kts 302°
2026-05-08 09:15 46.57255 17.75514 34120 ft 397 kts 302°
2026-05-08 09:15 46.60644 17.69169 34110 ft 397 kts 302°
2026-05-08 09:16 46.64098 17.62885 34143 ft 398 kts 303°
2026-05-08 09:16 46.67648 17.56698 34136 ft 398 kts 304°
2026-05-08 09:17 46.71193 17.50527 34128 ft 397 kts 303°
2026-05-08 09:17 46.74712 17.44337 34129 ft 396 kts 303°
2026-05-08 09:18 46.78211 17.38137 34125 ft 396 kts 303°
2026-05-08 09:18 46.81700 17.31925 34126 ft 396 kts 303°
2026-05-08 09:19 46.85187 17.25706 34114 ft 396 kts 303°
2026-05-08 09:19 46.88647 17.19520 34114 ft 396 kts 303°
2026-05-08 09:20 46.92128 17.13288 34117 ft 396 kts 303°
2026-05-08 09:20 46.95610 17.07051 34136 ft 396 kts 303°
2026-05-08 09:21 46.99091 17.00810 34132 ft 396 kts 303°
2026-05-08 09:23 47.11239 16.78871 34122 ft 396 kts 303°
2026-05-08 09:23 47.14702 16.72585 34117 ft 396 kts 303°
2026-05-08 09:24 47.18158 16.66285 34119 ft 396 kts 303°
2026-05-08 09:24 47.21617 16.59981 34116 ft 396 kts 303°
2026-05-08 09:25 47.25073 16.53662 34123 ft 397 kts 303°
2026-05-08 09:25 47.28539 16.47323 34110 ft 398 kts 303°
2026-05-08 09:26 47.32054 16.41013 34101 ft 399 kts 304°
2026-05-08 09:26 47.35608 16.34720 34102 ft 399 kts 304°
2026-05-08 09:27 47.39157 16.28415 34097 ft 399 kts 304°
2026-05-08 09:27 47.42689 16.22089 34098 ft 399 kts 303°
2026-05-08 09:28 47.46211 16.15742 34096 ft 399 kts 303°
2026-05-08 09:28 47.49730 16.09386 34099 ft 399 kts 303°
2026-05-08 09:29 47.53252 16.03031 34119 ft 400 kts 304°
2026-05-08 09:29 47.56779 15.96655 34098 ft 401 kts 304°
2026-05-08 09:30 47.60307 15.90249 34091 ft 402 kts 304°
2026-05-08 09:30 47.63841 15.83833 34098 ft 402 kts 304°
2026-05-08 09:31 47.67353 15.77438 34101 ft 402 kts 304°
2026-05-08 09:31 47.70879 15.70986 34110 ft 403 kts 304°
2026-05-08 09:32 47.74410 15.64516 34106 ft 403 kts 304°
2026-05-08 09:32 47.77940 15.58033 34096 ft 404 kts 304°
2026-05-08 09:33 47.81465 15.51533 34092 ft 403 kts 304°
2026-05-08 09:33 47.84991 15.45026 34095 ft 404 kts 304°
2026-05-08 09:34 47.88523 15.38501 34105 ft 405 kts 303°
2026-05-08 09:34 47.92051 15.31966 34108 ft 405 kts 303°
2026-05-08 09:35 47.95577 15.25423 34108 ft 404 kts 303°
2026-05-08 09:35 47.99095 15.18871 34105 ft 405 kts 303°
2026-05-08 09:36 48.02605 15.12307 34101 ft 404 kts 303°
2026-05-08 09:36 48.06114 15.05736 34096 ft 404 kts 303°
2026-05-08 09:37 48.08439 15.01378 34102 ft 405 kts 303°
2026-05-08 09:37 48.13142 14.92548 34094 ft 406 kts 304°
2026-05-08 09:38 48.16638 14.85959 34081 ft 407 kts 303°
2026-05-08 09:38 48.20152 14.79299 34082 ft 408 kts 303°
2026-05-08 09:39 48.23672 14.72629 34088 ft 408 kts 303°
2026-05-08 09:39 48.27194 14.65946 34090 ft 409 kts 303°
2026-05-08 09:40 48.30712 14.59237 34085 ft 409 kts 303°
2026-05-08 09:40 48.34237 14.52508 34088 ft 410 kts 303°
2026-05-08 09:41 48.37762 14.45764 34090 ft 410 kts 303°
2026-05-08 09:41 48.41284 14.39013 34108 ft 411 kts 304°
2026-05-08 09:42 48.44807 14.32238 34100 ft 412 kts 304°
2026-05-08 09:42 48.47745 14.26585 34091 ft 412 kts 303°
2026-05-08 09:43 48.51275 14.19761 34088 ft 413 kts 303°
2026-05-08 09:43 48.54807 14.12915 34080 ft 413 kts 303°
2026-05-08 09:44 48.57170 14.08330 34078 ft 414 kts 303°
2026-05-08 09:44 48.61866 13.99189 34095 ft 414 kts 303°
2026-05-08 09:45 48.65393 13.92304 34084 ft 414 kts 303°
2026-05-08 09:45 48.68918 13.85396 34092 ft 415 kts 303°
2026-05-08 09:46 48.72450 13.78470 34083 ft 416 kts 303°
2026-05-08 09:46 48.75974 13.71530 34086 ft 416 kts 303°
2026-05-08 09:47 48.79358 13.64508 34096 ft 415 kts 301°
2026-05-08 09:47 48.82635 13.57305 34087 ft 415 kts 301°
2026-05-08 09:48 48.85911 13.50074 34086 ft 416 kts 301°
2026-05-08 09:48 48.89216 13.42858 34090 ft 416 kts 301°
2026-05-08 09:49 48.92528 13.35637 34091 ft 417 kts 301°
2026-05-08 09:49 48.95835 13.28403 34087 ft 417 kts 301°
2026-05-08 09:50 48.98048 13.23555 34097 ft 417 kts 301°
2026-05-08 09:50 49.02448 13.13880 34106 ft 417 kts 301°
2026-05-08 09:51 49.05184 13.07836 34103 ft 417 kts 301°